Flag for Switzerland Weather past 2 weeks in Burgdorf, Lucerne, Switzerland

Now
61 °F

Partly sunny.


Feels Like: 61 °F
Forecast: 43 / 64 °F
Wind: 3 mph from North

Location: Bern / Belp


UV Index: 0 (Low)

Visibility: N/A


Pressure: 29.86 "Hg

Humidity: 68%

Dew point: 50 °F

Location of BurgdorfLocation

Historic Weather in Burgdorf

°F

Burgdorf temperature yesterday

Maximum temperature yesterday: 70 °F (at 2:50 PM)
Minimum temperature yesterday: 46 °F (at 6:50 AM)
Average temperature yesterday: 58 °F

Past Weeks' High & Low Weather Summary

 TemperatureHumidityPressure
High70 °F (Apr 11, 3:20 PM)100% (Apr 11, 2:50 AM)30.24 "Hg (Apr 11, 2:50 AM)
Low27 °F (Apr 17, 5:50 AM)24% (Apr 13, 6:20 PM)29.62 "Hg (Apr 20, 3:50 PM)
Average50 °F72%29.98 "Hg
* Reported Apr 10 9:20 AM — Apr 25 9:20 AM, Burgdorf, Weather by CustomWeather, © 2014

Note: Actual official high and low records may vary slightly from our data, if they occured in-between our weather recording intervals... More about our weather records

Advertising

Historic Weather Conditions — Data for Previous 24 hours

 ConditionsComfort  
Time TempWeatherWind HumidityBarometerVisibility
9:20 AM
Apr 25
54 °FSunny.2 mph88%29.83 "Hg10 mi
8:50 AM52 °FSunny.3 mph88%29.83 "Hg10 mi
8:20 AM50 °FSunny.1 mph94%29.83 "Hg10 mi
7:50 AM48 °FSunny.1 mph94%29.83 "Hg10 mi
7:20 AM46 °FPassing clouds.1 mph100%29.83 "HgN/A
6:50 AM46 °FPassing clouds.1 mph100%29.83 "HgN/A
6:20 AM46 °FPassing clouds.2 mph100%29.83 "HgN/A
5:50 AM46 °FPassing clouds.2 mph100%29.83 "HgN/A
5:20 AM45 °FPassing clouds.1 mph100%29.83 "HgN/A
4:50 AM45 °FPassing clouds.2 mph100%29.83 "HgN/A
4:20 AM45 °FPassing clouds.2 mph100%29.83 "HgN/A
3:50 AM45 °FPassing clouds.1 mph100%29.83 "Hg5 mi
3:20 AM46 °FClear.1 mph100%29.83 "Hg10 mi
2:50 AM46 °FClear.2 mph100%29.83 "HgN/A
2:20 AM46 °FClear.1 mph93%29.83 "Hg10 mi
1:20 AM46 °FClear.2 mph100%29.86 "Hg10 mi
12:50 AM48 °FClear.6 mph94%29.86 "Hg10 mi
12:20 AM48 °FClear.3 mph94%29.86 "Hg10 mi
11:50 PM
Apr 24
48 °FClear.2 mph100%29.86 "Hg10 mi
11:20 PM50 °FCool.1 mph94%29.86 "HgN/A
10:50 PM52 °FClear.2 mph94%29.86 "Hg10 mi
10:20 PM52 °FClear.3 mph94%29.86 "Hg10 mi
9:50 PM54 °FPassing clouds.No wind88%29.89 "HgN/A
9:20 PM57 °FScattered clouds.2 mph82%29.89 "HgN/A
8:50 PM59 °FScattered clouds.No wind77%29.89 "HgN/A
8:20 PM63 °FScattered clouds.3 mph64%29.89 "HgN/A
7:50 PM66 °FPassing clouds.2 mph52%29.89 "HgN/A
7:20 PM68 °FPassing clouds.5 mph53%29.89 "HgN/A
6:50 PM68 °FPassing clouds.6 mph53%29.89 "HgN/A
6:20 PM68 °FScattered clouds.5 mph49%29.92 "HgN/A
5:50 PM68 °FPassing clouds.3 mph49%29.92 "HgN/A
5:20 PM68 °FScattered clouds.6 mph49%29.92 "HgN/A
4:50 PM70 °FScattered clouds.6 mph46%29.92 "HgN/A
4:20 PM70 °FScattered clouds.6 mph46%29.92 "HgN/A
3:50 PM70 °FScattered clouds.7 mph46%29.95 "HgN/A
3:20 PM70 °FScattered clouds.2 mph46%29.95 "HgN/A
2:50 PM70 °FScattered clouds.8 mph46%29.98 "HgN/A
2:20 PM68 °FScattered clouds.2 mph49%29.98 "HgN/A
1:50 PM66 °FScattered clouds.5 mph52%29.98 "HgN/A
1:20 PM66 °FScattered clouds.3 mph52%30.01 "HgN/A
12:50 PM66 °FScattered clouds.5 mph56%30.01 "HgN/A
12:20 PM64 °FScattered clouds.5 mph60%30.04 "HgN/A
11:50 AM61 °FScattered clouds.5 mph68%30.07 "HgN/A
11:20 AM59 °FScattered clouds.2 mph72%30.07 "HgN/A
10:50 AM57 °FScattered clouds.3 mph77%30.07 "HgN/A
10:20 AM55 °FPartly sunny.2 mph82%30.09 "HgN/A
Weather by CustomWeather, © 2014

See weather overview